Location: Warner Observatory
(35.1353°N, 89.5455°W)
Time: 07:01:19
(UTC-06:00)

Amateur Radio Satellites - All Passes

Search period start: 17 January 2017 06:31
Search period end: 18 January 2017 06:31
Location: Warner Observatory, 35.1353°N, 89.5455°W

Satellite Date Start Highest point End Downlink Frequencies (MHz)
Time Altitude Azimuth
LilacSat-2 17 Jan 06:33:23 06:37:03 42° 286° (WNW) 06:40:43 437.200
PHONESAT 2.4 17 Jan 06:34:16 06:36:17 25° 10° (N) 06:38:18 2401.200-2431.200
CUTE-I 17 Jan 06:35:56 06:41:15 69° 285° (WNW) 06:46:32 437.470
ISS 17 Jan 06:39:18 06:42:32 68° 223° (SW) 06:45:45 145.825
GOMX 1 17 Jan 06:47:56 06:50:40 16° 294° (WNW) 06:53:19 467.674
NOAA 18 17 Jan 06:51:17 06:56:46 85° 105° (ESE) 07:02:13 137.9125
AIST 2 17 Jan 07:01:16 07:01:54 10° 253° (WSW) 07:02:30 435.215
STRAND 1 17 Jan 07:13:46 07:18:28 38° 261° (W) 07:23:13 437.568
CUTE 1.7 + AOD 2 17 Jan 07:15:05 07:19:11 42° 98° (E) 07:23:15 437.475
Cubesat XI-IV 17 Jan 07:18:32 07:23:01 28° 292° (WNW) 07:27:29 437.490
O/OREOS (USA 219) 17 Jan 07:28:38 07:32:38 31° 295° (WNW) 07:36:39 437.305
PRISM 17 Jan 07:31:04 07:33:20 14° 67° (ENE) 07:35:37 437.425
NOAA 15 17 Jan 07:42:10 07:45:22 16° 296° (WNW) 07:48:34 137.62
HO-68 17 Jan 07:42:29 07:49:42 77° 104° (ESE) 07:56:51 435.675
CANX-2 17 Jan 07:43:22 07:47:39 71° 284° (WNW) 07:51:55 2200.000
CUBEBUG 2 17 Jan 07:46:26 07:50:30 39° 99° (E) 07:54:38 437.445
Cosmos 2499 17 Jan 07:54:01 08:00:48 48° 270° (W) 08:07:28 435.465 / 435.565
Oscar 11 17 Jan 07:58:40 08:01:18 16° 93° (E) 08:03:56 145.826/435.025
SEEDS 17 Jan 08:02:23 08:06:40 77° 282° (WNW) 08:10:53 437.485
CINEMA 3 17 Jan 08:03:50 08:07:18 26° 289° (WNW) 08:10:49 145.822/145.860
PHONESAT 2.4 17 Jan 08:08:18 08:10:35 58° 205° (SSW) 08:12:53 2401.200-2431.200
SO-50 17 Jan 08:08:30 08:13:11 61° 116° (ESE) 08:17:48 436.795
COMPASS 1 17 Jan 08:15:02 08:19:15 85° 283° (WNW) 08:23:26 437.405
UNISAT 6 17 Jan 08:22:10 08:24:40 15° 68° (ENE) 08:27:10 437.425
UWE-3 17 Jan 08:22:36 08:26:55 65° 101° (E) 08:31:21 435.000/436.395/437.385
GONETS M04 17 Jan 08:23:52 08:32:01 44° 272° (W) 08:40:11
RS-15 17 Jan 08:27:16 08:39:16 52° 52° (NE) 08:50:43 29.354- 29.394
FUNcube-1 17 Jan 08:29:06 08:33:13 40° 99° (E) 08:37:24 145.935
AAUSAT CUBESAT 2 17 Jan 08:30:12 08:34:23 74° 284° (WNW) 08:38:32 437.432
NOAA 18 17 Jan 08:35:04 08:36:38 11° 300° (WNW) 08:38:12 137.9125
TIGRISAT 17 Jan 08:35:58 08:39:07 20° 69° (ENE) 08:42:16 435.000
DELFI C3 17 Jan 08:46:03 08:48:37 16° 94° (E) 08:51:09 145.870
ANTELSAT 17 Jan 08:49:32 08:53:18 31° 72° (ENE) 08:57:04 437.575/2403.000
ZACube-1 17 Jan 08:49:47 08:54:10 80° 102° (ESE) 08:58:38 437.345
JAS-2 17 Jan 08:51:29 08:53:21 12° 60° (ENE) 08:55:16 435.910
CUTE 1.7 + AOD 2 17 Jan 08:52:21 08:54:36 14° 293° (WNW) 08:56:52 437.475
PRISM 17 Jan 09:04:21 09:08:15 39° 261° (W) 09:12:11 437.425
CUBEBUG 2 17 Jan 09:24:13 09:26:47 16° 292° (WNW) 09:29:23 437.445
HO-68 17 Jan 09:32:00 09:36:35 19° 301° (WNW) 09:41:11 435.675
Oscar 11 17 Jan 09:33:31 09:37:32 37° 287° (WNW) 09:41:33 145.826/435.025
HUMSAT D 17 Jan 09:33:38 09:37:33 34° 98° (E) 09:41:28 437.325/437.525
NANOSAT C BR1 17 Jan 09:46:26 09:47:23 11° 65° (ENE) 09:48:19 145.865
SO-50 17 Jan 09:51:11 09:54:00 16° 313° (NW) 09:56:48 436.795
UNISAT 6 17 Jan 09:57:04 10:01:03 37° 262° (W) 10:05:02 437.425
PCSat 17 Jan 09:58:28 10:03:16 31° 56° (NE) 10:08:00 145.827
FUNcube-1 17 Jan 10:06:30 10:09:06 16° 292° (WNW) 10:11:43 145.935
TIGRISAT 17 Jan 10:11:58 10:15:38 27° 263° (W) 10:19:16 435.000
DELFI C3 17 Jan 10:19:57 10:23:26 29° 288° (WNW) 10:26:54 145.870
ANTELSAT 17 Jan 10:27:08 10:30:02 18° 266° (W) 10:32:56 437.575/2403.000
BUGSAT 1 17 Jan 10:32:02 10:33:12 11° 66° (ENE) 10:34:21 437.445
JAS-2 17 Jan 10:32:25 10:37:36 74° 258° (WSW) 10:43:09 435.910
QB50P1 17 Jan 10:33:03 10:37:01 43° 74° (ENE) 10:41:00 145.935-145.965
BY70-1 17 Jan 10:34:00 10:37:13 39° 99° (E) 10:40:14 436.1900
POLYITAN 1 17 Jan 10:35:59 10:40:00 47° 74° (ENE) 10:44:01 437.675
QB50P2 17 Jan 10:37:01 10:41:06 52° 74° (ENE) 10:45:11 145.880/145.840
RS-15 17 Jan 10:40:15 10:51:31 46° 253° (WSW) 11:02:21 29.354- 29.394
CUBEBUG 1 17 Jan 10:50:29 10:53:17 17° 94° (E) 10:56:03 437.445
AISAT 17 Jan 10:58:07 11:00:03 13° 93° (E) 11:01:59 437.250
POPSAT HIP 1 17 Jan 10:59:21 11:03:33 90° 253° (WSW) 11:07:45 437.405
ESTCUBE 1 17 Jan 11:02:57 11:07:17 43° 99° (E) 11:11:34 437.505/2401.250
HUMSAT D 17 Jan 11:10:04 11:12:51 17° 292° (WNW) 11:15:38 437.325/437.525
DUCHIFAT 1 17 Jan 11:14:47 11:18:56 68° 259° (W) 11:23:06 145.980
NANOSAT C BR1 17 Jan 11:18:29 11:22:35 54° 260° (W) 11:26:41 145.865
VELOX 1 17 Jan 11:30:05 11:33:55 29° 97° (E) 11:37:44 145.980
Oscar 19 17 Jan 11:36:39 11:40:20 20° 66° (ENE) 11:44:01 437.125/150
PCSat 17 Jan 11:41:49 11:46:34 32° 252° (WSW) 11:51:18 145.827
BUGSAT 1 17 Jan 12:04:07 12:08:06 49° 260° (W) 12:12:03 437.445
50 SAT 17 Jan 12:05:50 12:09:22 62° 101° (E) 12:12:52 437.505
QB50P1 17 Jan 12:11:09 12:12:58 12° 267° (W) 12:14:46 145.935-145.965
DX 1 17 Jan 12:13:46 12:17:54 43° 99° (E) 12:22:00 434.975-435.025
POLYITAN 1 17 Jan 12:14:40 12:16:00 11° 268° (W) 12:17:20 437.675
QB50P2 17 Jan 12:16:50 12:17:09 10° 268° (W) 12:17:28 145.880/145.840
UKube-1 17 Jan 12:20:05 12:24:04 36° 99° (E) 12:28:01 .
SPROUT 17 Jan 12:24:59 12:29:15 82° 282° (WNW) 12:33:29 437.525
CUBEBUG 1 17 Jan 12:25:42 12:29:38 34° 288° (WNW) 12:33:30 437.445
TISAT 1 17 Jan 12:31:41 12:33:39 13° 93° (E) 12:35:37 437.305
AISAT 17 Jan 12:32:32 12:36:43 46° 287° (WNW) 12:40:54 437.250
Cosmos 2491 17 Jan 12:37:58 12:45:50 35° 75° (ENE) 12:53:40 435.465 / 435.565
ESTCUBE 1 17 Jan 12:41:01 12:43:40 15° 293° (WNW) 12:46:19 437.505/2401.250
YUBILEINY 17 Jan 12:45:16 12:50:03 16° 79° (ENE) 12:54:49 435.215
Gurwin Techsat 1B 17 Jan 13:00:10 13:05:26 69° 74° (ENE) 13:10:43 435.225
VELOX 1 17 Jan 13:06:53 13:10:10 21° 291° (WNW) 13:13:26 145.980
AO-7 17 Jan 13:12:42 13:18:54 24° 57° (ENE) 13:25:07 29.400- 29.500
Oscar 19 17 Jan 13:14:21 13:19:17 44° 261° (W) 13:24:15 437.125/150
ITAMSAT 1 17 Jan 13:49:47 13:54:33 39° 71° (ENE) 13:59:19 435.822/435.867
DX 1 17 Jan 13:51:21 13:53:41 14° 294° (WNW) 13:56:01 434.975-435.025
AO-85 17 Jan 13:51:47 13:56:24 45° 115° (ESE) 14:00:44 145.980
UKube-1 17 Jan 13:57:02 13:59:46 17° 293° (WNW) 14:02:30 .
CUSAT 1 17 Jan 13:58:44 14:06:28 50° 76° (ENE) 14:13:42 437.405
TISAT 1 17 Jan 14:05:31 14:09:25 40° 287° (WNW) 14:13:19 437.305
ITUPSAT 1 17 Jan 14:06:21 14:10:35 30° 98° (E) 14:14:48 437.325
Cosmos 2504 17 Jan 14:10:40 14:18:22 36° 87° (E) 14:25:45 435.465 / 435.565
DANDE 17 Jan 14:14:20 14:20:35 26° 72° (ENE) 14:27:14 436.750
AIST 1 17 Jan 14:27:20 14:31:38 54° 279° (W) 14:35:56
Cosmos 2491 17 Jan 14:34:33 14:42:41 44° 272° (W) 14:50:51 435.465 / 435.565
YUBILEINY 17 Jan 14:36:45 14:45:34 86° 277° (W) 14:54:28 435.215
BEESAT 17 Jan 14:42:53 14:47:42 80° 103° (ESE) 14:52:29 436.000
Gurwin Techsat 1B 17 Jan 14:43:48 14:45:47 12° 269° (W) 14:47:46 435.225
SWISSCUBE 17 Jan 14:44:09 14:48:59 88° 281° (W) 14:53:47 437.505
AO-7 17 Jan 15:02:32 15:10:51 72° 255° (WSW) 15:19:15 29.400- 29.500
MOZHAYETS 4 17 Jan 15:08:41 15:13:07 43° 99° (E) 15:17:31
M-CUBED/EXP-1 PRIME 17 Jan 15:09:23 15:09:53 10° 97° (E) 15:10:23 437.505
JUGNU 17 Jan 15:26:03 15:29:27 16° 172° (S) 15:32:53 437.505
ITAMSAT 1 17 Jan 15:30:15 15:34:05 21° 265° (W) 15:37:56 435.822/435.867
BEESAT 3 17 Jan 15:33:11 15:34:03 11° 107° (ESE) 15:34:55 437.485
AO-85 17 Jan 15:33:41 15:36:58 19° 309° (NW) 15:40:06 145.980
CUSAT 1 17 Jan 15:41:14 15:47:59 31° 273° (W) 15:54:22 437.405
STARS 17 Jan 15:41:42 15:43:04 11° 92° (E) 15:44:26 437.465
ITUPSAT 1 17 Jan 15:44:24 15:48:13 24° 292° (WNW) 15:52:02 437.325
CUBESAT XI-V 17 Jan 15:46:43 15:49:25 15° 92° (E) 15:52:06 437.345
AUBIESAT-1 17 Jan 15:46:48 15:49:44 28° 102° (ESE) 15:52:36 437.475
BRITE-PL 17 Jan 15:50:35 15:56:02 51° 73° (ENE) 16:01:32 437.365/2234.400
DANDE 17 Jan 15:55:57 16:03:35 65° 266° (W) 16:11:49 436.750
O/OREOS (USA 219) 17 Jan 16:02:36 16:06:11 23° 62° (ENE) 16:09:47 437.305
Cosmos 2504 17 Jan 16:03:13 16:11:29 44° 282° (WNW) 16:19:25 435.465 / 435.565
BEESAT 2 17 Jan 16:09:53 16:11:25 12° 108° (ESE) 16:12:56 435.950
GOMX 1 17 Jan 16:12:32 16:17:24 34° 71° (ENE) 16:22:07 467.674
KKS-1 17 Jan 16:12:48 16:17:12 68° 101° (ESE) 16:21:35 437.445
CUTE-I 17 Jan 16:17:13 16:20:18 16° 64° (ENE) 16:23:25 437.470
HORYU 2 17 Jan 16:17:46 16:21:53 40° 72° (ENE) 16:26:01 437.375
NOAA 18 17 Jan 16:37:06 16:39:53 14° 62° (ENE) 16:42:40 137.9125
YUBILEINY 17 Jan 16:38:59 16:43:37 15° 295° (WNW) 16:48:18 435.215
M-CUBED/EXP-1 PRIME 17 Jan 16:41:32 16:44:31 30° 293° (WNW) 16:47:25 437.505
SO-50 17 Jan 16:43:32 16:47:07 23° 51° (NE) 16:50:38 436.795
MOZHAYETS 4 17 Jan 16:47:01 16:49:53 16° 293° (WNW) 16:52:45
SRMSAT 17 Jan 16:50:29 16:52:28 12° 166° (SSE) 16:54:28 437.500
Cubesat XI-IV 17 Jan 16:57:12 17:02:04 38° 71° (ENE) 17:06:57 437.490
AO-7 17 Jan 17:03:58 17:04:46 10° 270° (W) 17:05:34 29.400- 29.500
BEESAT 3 17 Jan 17:07:25 17:11:10 48° 302° (WNW) 17:14:59 437.485
DOVE 4 17 Jan 17:08:29 17:13:24 47° 74° (ENE) 17:18:05 437.250
LilacSat-2 17 Jan 17:11:44 17:15:23 52° 75° (ENE) 17:19:04 437.200
JUGNU 17 Jan 17:13:53 17:17:44 18° 182° (S) 17:21:37 437.505
STARS 17 Jan 17:15:26 17:19:40 51° 286° (WNW) 17:23:53 437.465
NOAA 15 17 Jan 17:17:37 17:22:50 66° 74° (ENE) 17:28:06 137.62
AUBIESAT-1 17 Jan 17:22:30 17:23:52 12° 297° (WNW) 17:25:13 437.475
CUBESAT XI-V 17 Jan 17:22:31 17:26:58 44° 287° (WNW) 17:31:23 437.345
CINEMA 3 17 Jan 17:26:36 17:29:01 14° 68° (ENE) 17:31:23 145.822/145.860
BRITE-PL 17 Jan 17:30:43 17:34:41 19° 268° (W) 17:38:41 437.365/2234.400
O/OREOS (USA 219) 17 Jan 17:41:42 17:45:31 28° 257° (WSW) 17:49:21 437.305
BEESAT 2 17 Jan 17:44:59 17:48:45 44° 303° (WNW) 17:52:34 435.950
GOMX 1 17 Jan 17:50:48 17:55:22 27° 264° (W) 17:59:53 467.674
CUTE-I 17 Jan 17:54:37 17:59:50 58° 259° (W) 18:05:04 437.470
HORYU 2 17 Jan 17:56:05 17:58:34 15° 266° (W) 18:01:02 437.375
CUTE 1.7 + AOD 2 17 Jan 18:05:11 18:08:18 20° 69° (ENE) 18:11:27 437.475
HO-68 17 Jan 18:07:34 18:14:11 41° 67° (ENE) 18:20:48 435.675
NOAA 18 17 Jan 18:14:24 18:19:54 70° 258° (WSW) 18:25:23 137.9125
SO-50 17 Jan 18:23:34 18:27:36 33° 247° (WSW) 18:31:34 436.795
CANX-2 17 Jan 18:32:34 18:36:40 51° 75° (ENE) 18:40:48 2200.000
Cosmos 2499 17 Jan 18:34:11 18:40:46 25° 85° (E) 18:47:02 435.465 / 435.565
SRMSAT 17 Jan 18:37:03 18:40:53 18° 176° (S) 18:44:44 437.500
Cubesat XI-IV 17 Jan 18:38:05 18:42:11 23° 265° (W) 18:46:19 437.490
CUBEBUG 2 17 Jan 18:42:12 18:45:23 21° 70° (ENE) 18:48:32 437.445
DOVE 4 17 Jan 18:47:59 18:51:11 17° 266° (W) 18:54:19 437.250
SEEDS 17 Jan 18:50:34 18:54:34 45° 74° (ENE) 18:58:37 437.485
NOAA 15 17 Jan 19:00:48 19:03:01 13° 268° (W) 19:05:14 137.62
CINEMA 3 17 Jan 19:01:27 19:05:48 44° 261° (W) 19:10:00 145.822/145.860
COMPASS 1 17 Jan 19:02:17 19:06:11 40° 74° (ENE) 19:10:07 437.405
JUGNU 17 Jan 19:03:24 19:06:01 13° 192° (SSW) 19:08:38 437.505
AIST 2 17 Jan 19:14:36 19:18:00 26° 112° (ESE) 19:21:27 435.215
UWE-3 17 Jan 19:16:46 19:20:30 32° 72° (ENE) 19:24:12 435.000/436.395/437.385
AAUSAT CUBESAT 2 17 Jan 19:16:49 19:20:46 45° 74° (ENE) 19:24:46 437.432
FUNcube-1 17 Jan 19:22:20 19:25:20 20° 70° (ENE) 19:28:21 145.935
GONETS M04 17 Jan 19:24:03 19:32:09 46° 88° (E) 19:40:18
STRAND 1 17 Jan 19:26:55 19:32:05 88° 285° (WNW) 19:37:14 437.568
CUTE 1.7 + AOD 2 17 Jan 19:40:19 19:43:56 27° 264° (W) 19:47:35 437.475
ZACube-1 17 Jan 19:42:37 19:46:26 38° 73° (ENE) 19:50:17 437.345
HO-68 17 Jan 19:55:32 20:01:53 33° 263° (W) 20:08:16 435.675
CANX-2 17 Jan 20:11:49 20:12:47 11° 269° (W) 20:13:44 2200.000
CUBEBUG 2 17 Jan 20:18:23 20:21:51 25° 264° (W) 20:25:19 437.445
HUMSAT D 17 Jan 20:22:52 20:25:20 16° 68° (ENE) 20:27:48 437.325/437.525
Oscar 11 17 Jan 20:24:21 20:28:38 76° 258° (WSW) 20:32:58 145.826/435.025
Cosmos 2499 17 Jan 20:24:54 20:33:20 59° 279° (W) 20:41:16 435.465 / 435.565
SRMSAT 17 Jan 20:25:40 20:29:21 17° 186° (S) 20:33:02 437.500
SEEDS 17 Jan 20:28:53 20:30:27 12° 268° (W) 20:32:03 437.485
COMPASS 1 17 Jan 20:39:49 20:41:52 13° 267° (W) 20:43:56 437.405
PRISM 17 Jan 20:48:52 20:52:35 32° 98° (E) 20:56:16 437.425
AIST 2 17 Jan 20:53:01 20:56:23 24° 307° (NW) 20:59:48 435.215
UWE-3 17 Jan 20:54:28 20:57:00 16° 266° (W) 20:59:33 435.000/436.395/437.385
AAUSAT CUBESAT 2 17 Jan 20:54:55 20:56:26 12° 268° (W) 20:57:58 437.432
FUNcube-1 17 Jan 20:57:56 21:01:24 26° 264° (W) 21:04:54 145.935
DELFI C3 17 Jan 21:01:22 21:05:21 86° 258° (WSW) 21:09:23 145.870
ZACube-1 17 Jan 21:20:49 21:22:52 13° 267° (W) 21:24:54 437.345
GONETS M04 17 Jan 21:21:24 21:29:03 34° 286° (WNW) 21:36:47
ISS 17 Jan 21:41:40 21:43:48 16° 129° (SE) 21:45:57 145.825
JAS-2 17 Jan 21:44:11 21:49:30 21° 94° (E) 21:55:01 435.910
CUBEBUG 1 17 Jan 21:45:42 21:46:18 10° 64° (ENE) 21:46:53 437.445
UNISAT 6 17 Jan 21:51:07 21:55:27 53° 100° (E) 21:59:52 437.425
HUMSAT D 17 Jan 21:56:55 22:00:37 33° 262° (W) 22:04:22 437.325/437.525
ESTCUBE 1 17 Jan 21:59:28 22:03:17 27° 70° (ENE) 22:07:07 437.505/2401.250
TIGRISAT 17 Jan 22:05:23 22:09:47 72° 101° (E) 22:14:18 435.000
BY70-1 17 Jan 22:15:56 22:18:43 80° 258° (WSW) 22:21:48 436.1900
SRMSAT 17 Jan 22:17:37 22:17:45 10° 196° (SSW) 22:17:53 437.500
ANTELSAT 17 Jan 22:19:50 22:24:15 72° 284° (WNW) 22:28:45 437.575/2403.000
VELOX 1 17 Jan 22:24:50 22:27:54 19° 68° (ENE) 22:30:59 145.980
PRISM 17 Jan 22:24:59 22:27:34 16° 292° (WNW) 22:30:09 437.425
QB50P2 17 Jan 22:27:32 22:28:35 11° 92° (E) 22:29:38 145.880/145.840
AO-85 17 Jan 22:27:36 22:29:41 14° 49° (NE) 22:31:47 145.980
50 SAT 17 Jan 22:38:32 22:40:40 15° 69° (ENE) 22:42:49 437.505
RS-15 17 Jan 22:46:13 22:56:53 43° 107° (ESE) 23:07:58 29.354- 29.394
POPSAT HIP 1 17 Jan 22:48:08 22:51:03 18° 95° (E) 22:53:59 437.405
DUCHIFAT 1 17 Jan 23:02:27 23:05:47 23° 96° (E) 23:09:08 145.980
NANOSAT C BR1 17 Jan 23:06:08 23:09:46 28° 97° (E) 23:13:24 145.865
DX 1 17 Jan 23:06:24 23:09:59 25° 70° (ENE) 23:13:34 434.975-435.025
UKube-1 17 Jan 23:11:56 23:15:10 21° 69° (ENE) 23:18:25 .
SPROUT 17 Jan 23:14:57 23:19:02 47° 74° (ENE) 23:23:07 437.525
ISS 17 Jan 23:17:01 23:20:04 36° 323° (NW) 23:23:06 145.825
CUBEBUG 1 17 Jan 23:17:36 23:21:59 64° 259° (W) 23:26:22 437.445
AISAT 17 Jan 23:25:57 23:30:24 81° 256° (WSW) 23:34:53 437.250
JAS-2 17 Jan 23:27:39 23:34:45 68° 286° (WNW) 23:42:26 435.910
UNISAT 6 17 Jan 23:29:50 23:31:42 13° 294° (WNW) 23:33:35 437.425
ESTCUBE 1 17 Jan 23:36:24 23:40:01 23° 264° (W) 23:43:38 437.505/2401.250
BUGSAT 1 17 Jan 23:49:09 23:52:35 26° 97° (E) 23:56:01 437.445
QB50P1 17 Jan 23:56:08 00:00:18 62° 285° (WNW) 00:04:27 145.935-145.965
POLYITAN 1 17 Jan 23:59:20 00:03:29 56° 285° (WNW) 00:07:37 437.675
VELOX 1 18 Jan 00:00:01 00:04:04 34° 262° (W) 00:08:08 145.980
QB50P2 18 Jan 00:00:31 00:04:37 50° 286° (WNW) 00:08:42 145.880/145.840
AO-85 18 Jan 00:06:35 00:10:17 42° 245° (WSW) 00:14:00 145.980
50 SAT 18 Jan 00:10:38 00:13:38 25° 263° (W) 00:16:39 437.505
POPSAT HIP 1 18 Jan 00:23:09 00:26:50 30° 289° (WNW) 00:30:31 437.405
PCSat 18 Jan 00:36:24 00:41:36 52° 112° (ESE) 00:46:52 145.827
DUCHIFAT 1 18 Jan 00:37:59 00:41:21 24° 290° (WNW) 00:44:42 145.980
AIST 1 18 Jan 00:38:05 00:41:36 24° 77° (ENE) 00:45:05
NANOSAT C BR1 18 Jan 00:42:14 00:45:16 20° 291° (WNW) 00:48:19 145.865
DX 1 18 Jan 00:42:32 00:46:03 24° 264° (W) 00:49:35 434.975-435.025
UKube-1 18 Jan 00:47:16 00:51:00 28° 263° (W) 00:54:45 .
YUBILEINY 18 Jan 00:51:26 00:59:38 41° 76° (ENE) 01:07:43 435.215
TISAT 1 18 Jan 00:53:14 00:57:25 88° 265° (W) 01:01:36 437.305
SPROUT 18 Jan 00:53:41 00:55:09 12° 268° (W) 00:56:39 437.525
RS-15 18 Jan 00:57:31 01:09:00 54° 307° (NW) 01:21:02 29.354- 29.394
ITUPSAT 1 18 Jan 01:10:15 01:14:07 25° 69° (ENE) 01:17:59 437.325
JAS-2 18 Jan 01:16:43 01:18:41 11° 301° (WNW) 01:20:41 435.910
Gurwin Techsat 1B 18 Jan 01:19:56 01:24:46 35° 98° (E) 01:29:34 435.225
BUGSAT 1 18 Jan 01:24:54 01:27:45 19° 291° (WNW) 01:30:37 437.445
BEESAT 3 18 Jan 01:27:14 01:30:51 32° 55° (NE) 01:34:26 437.485
Oscar 19 18 Jan 01:28:51 01:34:03 85° 104° (ESE) 01:39:11 437.125/150
Cosmos 2491 18 Jan 01:34:55 01:43:00 45° 88° (E) 01:51:06 435.465 / 435.565
BEESAT 18 Jan 01:45:53 01:50:34 63° 74° (ENE) 01:55:17 436.000
PHONESAT 2.4 18 Jan 01:46:58 01:48:44 19° 148° (SSE) 01:50:29 2401.200-2431.200
SWISSCUBE 18 Jan 01:47:10 01:51:53 74° 75° (ENE) 01:56:39 437.505
M-CUBED/EXP-1 PRIME 18 Jan 01:51:16 01:53:25 14° 63° (ENE) 01:55:32 437.505
Cosmos 2504 18 Jan 01:59:56 02:07:11 56° 80° (E) 02:14:10 435.465 / 435.565
BEESAT 2 18 Jan 02:05:34 02:09:19 35° 56° (NE) 02:13:02 435.950
ITAMSAT 1 18 Jan 02:06:42 02:10:09 18° 94° (E) 02:13:37 435.822/435.867
MOZHAYETS 4 18 Jan 02:07:38 02:11:30 28° 70° (ENE) 02:15:23
AIST 1 18 Jan 02:15:50 02:19:01 21° 271° (W) 02:22:11
PCSat 18 Jan 02:21:21 02:25:17 20° 308° (NW) 02:29:16 145.827
AUBIESAT-1 18 Jan 02:28:43 02:32:26 28° 67° (ENE) 02:35:59 437.475
ITUPSAT 1 18 Jan 02:47:43 02:51:47 28° 263° (W) 02:55:53 437.325
YUBILEINY 18 Jan 02:48:22 02:56:14 38° 273° (W) 03:04:05 435.215
CUBESAT XI-V 18 Jan 02:48:33 02:49:50 11° 64° (ENE) 02:51:06 437.345
CUSAT 1 18 Jan 02:56:55 03:01:10 44° 90° (E) 03:06:45 437.405
Gurwin Techsat 1B 18 Jan 03:00:13 03:04:30 25° 292° (WNW) 03:08:46 435.225
BEESAT 3 18 Jan 03:05:31 03:08:12 17° 250° (WSW) 03:10:52 437.485
KKS-1 18 Jan 03:07:33 03:11:43 41° 72° (ENE) 03:15:54 437.445
AO-7 18 Jan 03:07:58 03:16:00 49° 102° (ESE) 03:23:56 29.400- 29.500
Oscar 19 18 Jan 03:12:04 03:12:35 10° 299° (WNW) 03:13:05 437.125/150
RS-15 18 Jan 03:17:32 03:25:21 19° 337° (NNW) 03:33:18 29.354- 29.394
PHONESAT 2.4 18 Jan 03:20:32 03:22:46 44° 342° (NNW) 03:25:00 2401.200-2431.200
DANDE 18 Jan 03:22:31 03:24:03 12° 82° (E) 03:25:45 436.750
M-CUBED/EXP-1 PRIME 18 Jan 03:23:05 03:27:30 52° 255° (WSW) 03:31:42 437.505
BEESAT 18 Jan 03:27:36 03:28:42 11° 268° (W) 03:29:48 436.000
Cosmos 2491 18 Jan 03:32:12 03:39:53 34° 286° (WNW) 03:47:38 435.465 / 435.565
BEESAT 2 18 Jan 03:44:18 03:46:46 16° 251° (WSW) 03:49:14 435.950
ITAMSAT 1 18 Jan 03:44:50 03:49:48 46° 288° (WNW) 03:54:45 435.822/435.867
MOZHAYETS 4 18 Jan 03:44:58 03:48:35 23° 265° (W) 03:52:14
Cosmos 2504 18 Jan 03:54:44 03:59:51 21° 277° (W) 04:04:53 435.465 / 435.565
BRITE-PL 18 Jan 04:00:38 04:04:00 19° 92° (E) 04:07:12 437.365/2234.400
AUBIESAT-1 18 Jan 04:03:15 04:06:44 23° 258° (WSW) 04:10:06 437.475
STARS 18 Jan 04:08:18 04:12:41 90° 272° (W) 04:17:05 437.465
CUBESAT XI-V 18 Jan 04:21:55 04:26:35 67° 259° (W) 04:31:17 437.345
CUSAT 1 18 Jan 04:40:18 04:43:38 18° 296° (WNW) 04:47:33 437.405
KKS-1 18 Jan 04:45:50 04:48:25 15° 266° (W) 04:50:59 437.445
PHONESAT 2.4 18 Jan 04:55:24 04:57:14 20° 358° (N) 04:59:05 2401.200-2431.200
AO-7 18 Jan 05:01:09 05:08:25 35° 298° (WNW) 05:15:41 29.400- 29.500
DANDE 18 Jan 05:03:09 05:06:08 27° 289° (WNW) 05:09:54 436.750
DOVE 4 18 Jan 05:12:36 05:14:32 13° 92° (E) 05:16:26 437.250
AIST 2 18 Jan 05:16:12 05:20:27 83° 61° (ENE) 05:24:40 435.215
Cubesat XI-IV 18 Jan 05:18:17 05:22:06 20° 94° (E) 05:25:54 437.490
NOAA 15 18 Jan 05:36:24 05:41:07 32° 97° (E) 05:45:48 137.62
BRITE-PL 18 Jan 05:38:09 05:42:38 36° 289° (WNW) 05:46:47 437.365/2234.400
RS-15 18 Jan 05:38:34 05:45:20 16° 15° (NNE) 05:52:01 29.354- 29.394
GONETS M04 18 Jan 05:39:24 05:45:12 19° 67° (ENE) 05:50:58
ISS 18 Jan 05:47:09 05:50:21 53° 40° (NE) 05:53:32 145.825
HORYU 2 18 Jan 05:47:44 05:52:08 62° 286° (WNW) 05:56:31 437.375
GOMX 1 18 Jan 05:55:44 06:00:07 59° 285° (WNW) 06:04:15 467.674
O/OREOS (USA 219) 18 Jan 06:11:02 06:15:20 47° 106° (ESE) 06:19:37 437.305
CUTE-I 18 Jan 06:14:43 06:20:03 74° 103° (ESE) 06:25:23 437.470
LilacSat-2 18 Jan 06:22:00 06:25:50 61° 284° (WNW) 06:29:39 437.200
CANX-2 18 Jan 06:22:56 06:24:23 11° 92° (E) 06:25:49 2200.000
